Weather History for Gilze-Rijen, Netherlands

Change the Weather History Date:

Monday, February 18, 2013

  Actual Average Record
Temperature  
Mean Temperature 34 °F -  
Max Temperature 44 °F 47 °F 53 °F (1998)
Min Temperature 24 °F 34 °F 17 °F (2003)
Degree Days  
Heating Degree Days 31    
Moisture  
Dew Point 28 °F    
Average Humidity 91    
Maximum Humidity 100    
Minimum Humidity 53    
Precipitation  
Precipitation 0.00 in - - ()
Sea Level Pressure  
Sea Level Pressure 30.16 in    
Wind  
Wind Speed 2 mph ()    
Max Wind Speed 6 mph    
Max Gust Speed -    
Visibility 3.1 miles    
Events Fog    
Averages and records for this station are not official NWS values.
T = Trace of Precipitation, MM = Missing Value Source: Averaged Metar Reports

Daily Weather History Graph

Daily Weather History Graph

Search for Another Location

Airport:

Trip Planner

Search our weather history database for the weather conditions in past years. The results will help you decide how hot, cold, wet, or windy it might be!

Date:

Astronomy

Feb. 18, 2013 Rise Set
Actual Time 7:48 AM CET 6:00 PM CET
Civil Twilight 7:13 AM CET 6:35 PM CET
Nautical Twilight 6:35 AM CET 7:14 PM CET
Astronomical Twilight 5:56 AM CET 7:52 PM CET
Moon 11:15 AM CET (2/18) 2:32 AM CET (2/18)
Length of Visible Light 11h 21m
Length of Day
10h 12m
First Quarter, 56% of the Moon is Illuminated
Feb 18
First Quarter
Feb 25
Full
Mar 4
Last Quarter
Mar 11
New
Mar 19
First Quarter

Hourly Weather History & Observations

Time (CET) Temp. Windchill Dew Point Humidity Pressure Visibility Wind Dir Wind Speed Gust Speed Precip Events Conditions
12:25 AM 30.2 °F - 30.2 °F 100% 30.18 in 1.7 mi East 2.3 mph - N/A   Mostly Cloudy
12:55 AM 30.2 °F - 30.2 °F 100% 30.18 in 1.2 mi East 2.3 mph - N/A   Mist
1:25 AM 28.4 °F - 28.4 °F 100% 30.18 in 1.6 mi East 2.3 mph - N/A   Partly Cloudy
1:55 AM 28.4 °F - 26.6 °F 93% 30.18 in 0.5 mi East 1.2 mph - N/A Fog Light Freezing Fog
2:25 AM 28.4 °F - 26.6 °F 93% 30.18 in 1.5 mi NE 2.3 mph - N/A   Mostly Cloudy
2:34 AM 28.4 °F - 28.4 °F 100% 30.18 in 0.9 mi ENE 2.3 mph - N/A   Scattered Clouds
2:38 AM 28.4 °F - 28.4 °F 100% 30.18 in 1.0 mi ENE 2.3 mph - N/A   Partly Cloudy
2:51 AM 26.6 °F - 26.6 °F 100% 30.18 in 1.2 mi ENE 2.3 mph - N/A   Mist
2:55 AM 28.4 °F - 26.6 °F 93% 30.18 in 1.4 mi ENE 2.3 mph - N/A   Mist
3:01 AM 26.6 °F - 26.6 °F 100% 30.18 in 1.4 mi ENE 2.3 mph - N/A   Mist
3:05 AM 26.6 °F - 26.6 °F 100% 30.18 in 0.8 mi ENE 1.2 mph - N/A   Mist
3:11 AM 26.6 °F - 26.6 °F 100% 30.18 in 0.6 mi ENE 1.2 mph - N/A   Mist
3:25 AM 26.6 °F - 26.6 °F 100% 30.18 in 0.8 mi East 1.2 mph - N/A   Mist
3:31 AM 26.6 °F - 26.6 °F 100% 30.18 in 0.4 mi ESE 1.2 mph - N/A Fog Light Freezing Fog
3:55 AM 24.8 °F - 24.8 °F 100% 30.18 in 1.0 mi SSE 1.2 mph - N/A   Mostly Cloudy
4:08 AM 24.8 °F - 24.8 °F 100% 30.18 in 1.0 mi SSE 1.2 mph - N/A   Mostly Cloudy
4:17 AM 24.8 °F - 24.8 °F 100% 30.15 in 0.9 mi SSE 1.2 mph - N/A   Mostly Cloudy
4:25 AM 24.8 °F - 24.8 °F 100% 30.18 in 0.5 mi SSE 1.2 mph - N/A Fog Light Freezing Fog
4:27 AM 24.8 °F - 24.8 °F 100% 30.18 in 1.3 mi SSE 1.2 mph - N/A   Mostly Cloudy
4:33 AM 24.8 °F - 24.8 °F 100% 30.18 in 0.9 mi SSE 1.2 mph - N/A   Scattered Clouds
4:37 AM 24.8 °F - 24.8 °F 100% 30.18 in 1.2 mi SSE 1.2 mph - N/A   Scattered Clouds
4:49 AM 26.6 °F - 26.6 °F 100% 30.15 in 1.4 mi SSE 2.3 mph - N/A   Overcast
4:55 AM 26.6 °F - 26.6 °F 100% 30.15 in 1.2 mi SSE 1.2 mph - N/A   Overcast
5:09 AM 26.6 °F - 26.6 °F 100% 30.15 in 1.3 mi SSE 1.2 mph - N/A   Overcast
5:13 AM 26.6 °F - 26.6 °F 100% 30.15 in 0.4 mi SSE 1.2 mph - N/A Fog Light Freezing Fog
5:17 AM 26.6 °F - 24.8 °F 93% 30.15 in 0.8 mi SSE 1.2 mph - N/A   Mist
5:21 AM 24.8 °F - 24.8 °F 100% 30.15 in - SSE 1.2 mph - N/A Fog Light Freezing Fog
5:25 AM 24.8 °F - 24.8 °F 100% 30.15 in 0.3 mi SSE 1.2 mph - N/A Fog Light Freezing Fog
5:34 AM 24.8 °F - 24.8 °F 100% 30.15 in 0.6 mi SSE 2.3 mph - N/A Fog Light Freezing Fog
5:39 AM 24.8 °F - 24.8 °F 100% 30.15 in 0.4 mi SSE 2.3 mph - N/A Fog Light Freezing Fog
5:43 AM 24.8 °F - 24.8 °F 100% 30.15 in 0.5 mi SSE 2.3 mph - N/A Fog Light Freezing Fog
5:47 AM 24.8 °F - 24.8 °F 100% 30.15 in 0.4 mi SSE 1.2 mph - N/A Fog Light Freezing Fog
5:55 AM 24.8 °F - 24.8 °F 100% 30.15 in 1.4 mi SSE 1.2 mph - N/A   Overcast
6:08 AM 24.8 °F - 24.8 °F 100% 30.15 in 1.4 mi SSE 1.2 mph - N/A   Overcast
6:25 AM 24.8 °F - 24.8 °F 100% 30.15 in 1.2 mi SSE 1.2 mph - N/A   Overcast
6:38 AM 24.8 °F - 24.8 °F 100% 30.15 in 0.8 mi SSE 1.2 mph - N/A   Mostly Cloudy
6:55 AM 24.8 °F - 24.8 °F 100% 30.15 in 1.4 mi SSE 1.2 mph - N/A   Overcast
7:05 AM 24.8 °F - 24.8 °F 100% 30.15 in 1.4 mi SSE 1.2 mph - N/A   Mostly Cloudy
7:25 AM 24.8 °F - 24.8 °F 100% 30.15 in 1.7 mi SSE 1.2 mph - N/A   Mist
7:55 AM 24.8 °F - 24.8 °F 100% 30.15 in 1.3 mi SSE 1.2 mph - N/A   Mist
8:08 AM 26.6 °F - 24.8 °F 93% 30.18 in 0.9 mi SSE 1.2 mph - N/A   Mist
8:12 AM 26.6 °F - 24.8 °F 93% 30.18 in 1.1 mi SSE 1.2 mph - N/A   Mist
8:25 AM 26.6 °F - 26.6 °F 100% 30.18 in 1.2 mi SSE 2.3 mph - N/A   Scattered Clouds
8:32 AM 26.6 °F - 26.6 °F 100% 30.18 in 1.7 mi SSE 2.3 mph - N/A   Mist
8:33 AM 26.6 °F - 26.6 °F 100% 30.18 in 1.7 mi SSE 2.3 mph - N/A   Mist
8:55 AM 28.4 °F - 28.4 °F 100% 30.18 in 1.7 mi SE 2.3 mph - N/A   Partly Cloudy
9:05 AM 30.2 °F - 28.4 °F 93% 30.18 in 1.8 mi East 1.2 mph - N/A   Partly Cloudy
9:11 AM 30.2 °F - 30.2 °F 100% 30.18 in - East 2.3 mph - N/A   Scattered Clouds
9:21 AM 32.0 °F - 32.0 °F 100% 30.18 in 2.2 mi ESE 2.3 mph - N/A   Mostly Cloudy
9:25 AM 32.0 °F - 32.0 °F 100% 30.18 in - ESE 2.3 mph - N/A   Scattered Clouds
9:29 AM 32.0 °F - 32.0 °F 100% 30.18 in - ESE 2.3 mph - N/A   Partly Cloudy
9:42 AM 33.8 °F - 33.8 °F 100% 30.18 in - ESE 2.3 mph - N/A   Mostly Cloudy
9:49 AM 33.8 °F - 33.8 °F 100% 30.18 in 3.1 mi SSE 1.2 mph - N/A   Mostly Cloudy
9:55 AM 33.8 °F - 33.8 °F 100% 30.18 in 3.1 mi SE 2.3 mph - N/A   Partly Cloudy
10:09 AM 33.8 °F 28.6 °F 33.8 °F 100% 30.18 in 4.3 mi SE 5.8 mph - N/A   Partly Cloudy
10:17 AM 35.6 °F 31.7 °F 35.6 °F 100% 30.18 in 5.0 mi SE 4.6 mph - N/A   Mist
10:25 AM 35.6 °F 31.7 °F 33.8 °F 93% 30.18 in 4.3 mi SE 4.6 mph - N/A   Mist
10:26 AM 35.6 °F 31.7 °F 33.8 °F 93% 30.18 in 5.0 mi SE 4.6 mph - N/A   Mist
10:31 AM 35.6 °F 32.8 °F 33.8 °F 93% 30.18 in 5.0 mi SE 3.5 mph - N/A   Mist
10:42 AM 37.4 °F 34.9 °F 33.8 °F 87% 30.18 in 5.6 mi SE 3.5 mph - N/A   Partly Cloudy
10:55 AM 37.4 °F 33.8 °F 33.8 °F 87% 30.18 in 6.2 mi SE 4.6 mph - N/A   Partly Cloudy
11:25 AM 39.2 °F 35.9 °F 33.8 °F 81% 30.18 in 6.2 mi SE 4.6 mph - N/A   Unknown
11:55 AM 41.0 °F 37.1 °F 33.8 °F 76% 30.18 in 6.2 mi SE 5.8 mph - N/A   Partly Cloudy
12:25 PM 42.8 °F 41.1 °F 33.8 °F 70% 30.18 in 6.2 mi SE 3.5 mph - N/A   Scattered Clouds
12:55 PM 42.8 °F 40.1 °F 30.2 °F 61% 30.18 in 6.2 mi SE 4.6 mph - N/A   Scattered Clouds
1:25 PM 44.6 °F 41.4 °F 30.2 °F 57% 30.18 in 6.2 mi SSE 5.8 mph - N/A   Unknown
1:55 PM 44.6 °F 43.1 °F 30.2 °F 57% 30.15 in 6.2 mi SSE 3.5 mph - N/A   Partly Cloudy
2:25 PM 44.6 °F 42.2 °F 28.4 °F 53% 30.15 in 6.2 mi East 4.6 mph - N/A   Partly Cloudy
2:55 PM 44.6 °F - 28.4 °F 53% 30.15 in 6.2 mi ENE 2.3 mph - N/A   Unknown
3:25 PM 44.6 °F 43.1 °F 30.2 °F 57% 30.15 in 6.2 mi South 3.5 mph - N/A   Unknown
3:55 PM 44.6 °F - 30.2 °F 57% 30.15 in 6.2 mi ESE 2.3 mph - N/A   Partly Cloudy
4:25 PM 44.6 °F - 30.2 °F 57% 30.15 in 6.2 mi East 1.2 mph - N/A   Unknown
4:55 PM 42.8 °F 41.1 °F 30.2 °F 61% 30.15 in 6.2 mi ENE 3.5 mph - N/A   Partly Cloudy
5:25 PM 41.0 °F - 30.2 °F 65% 30.12 in 6.2 mi ENE 2.3 mph - N/A   Partly Cloudy
5:55 PM 39.2 °F - 28.4 °F 65% 30.15 in 6.2 mi East 2.3 mph - N/A   Partly Cloudy
6:25 PM 37.4 °F 34.9 °F 28.4 °F 70% 30.15 in 6.2 mi SE 3.5 mph - N/A   Partly Cloudy
6:55 PM 35.6 °F - 28.4 °F 75% 30.15 in 6.2 mi SE 2.3 mph - N/A   Partly Cloudy
7:25 PM 33.8 °F - 28.4 °F 81% 30.12 in 6.2 mi ESE 2.3 mph - N/A   Unknown
7:55 PM 33.8 °F - 28.4 °F 81% 30.12 in 6.2 mi South 1.2 mph - N/A   Partly Cloudy
8:25 PM 32.0 °F - 28.4 °F 87% 30.12 in 6.2 mi SSE 1.2 mph - N/A   Unknown
8:55 PM 32.0 °F - 28.4 °F 87% 30.12 in 6.2 mi South 2.3 mph - N/A   Unknown
9:25 PM 32.0 °F - 28.4 °F 87% 30.12 in 6.2 mi SW 1.2 mph - N/A   Partly Cloudy
9:55 PM 32.0 °F - 28.4 °F 87% 30.12 in 6.2 mi SSW 1.2 mph - N/A   Partly Cloudy
10:25 PM 32.0 °F - 28.4 °F 87% 30.12 in 5.6 mi SSW 2.3 mph - N/A   Mostly Cloudy
10:55 PM 30.2 °F - 28.4 °F 93% 30.12 in 5.0 mi SSW 1.2 mph - N/A   Mist
11:13 PM 30.2 °F - 26.6 °F 86% 30.12 in 5.6 mi SSW 1.2 mph - N/A   Mist
11:25 PM 30.2 °F - 26.6 °F 86% 30.12 in 4.3 mi SW 2.3 mph - N/A   Mist
11:44 PM 28.4 °F - 26.6 °F 93% 30.12 in 4.3 mi SSW 1.2 mph - N/A   Mist
11:55 PM 28.4 °F - 26.6 °F 93% 30.12 in 3.1 mi SW 1.2 mph - N/A   Mist